TimeEDT,TemperatureF,Dew PointF,Humidity,Sea Level PressureIn,VisibilityMPH,Wind Direction,Wind SpeedMPH,Gust SpeedMPH,PrecipitationIn,Events,Conditions,WindDirDegrees,DateUTC
12:51 AM,51.1,46.0,83,29.99,10.0,NNW,3.5,-,N/A,,Overcast,330,2013-09-26 04:51:00
1:51 AM,51.1,46.0,83,30.00,10.0,NNW,3.5,-,N/A,,Overcast,330,2013-09-26 05:51:00
2:51 AM,50.0,46.0,86,29.99,10.0,NW,3.5,-,N/A,,Overcast,320,2013-09-26 06:51:00
3:51 AM,48.9,45.0,86,30.00,10.0,NNW,4.6,-,N/A,,Overcast,330,2013-09-26 07:51:00
4:51 AM,48.0,44.1,86,30.01,10.0,Calm,Calm,-,N/A,,Scattered Clouds,0,2013-09-26 08:51:00
5:51 AM,45.0,41.0,86,30.01,10.0,NW,4.6,-,N/A,,Clear,320,2013-09-26 09:51:00
6:51 AM,44.1,41.0,89,30.02,10.0,NW,3.5,-,N/A,,Clear,320,2013-09-26 10:51:00
7:51 AM,48.9,44.1,83,30.03,10.0,NW,4.6,-,N/A,,Clear,320,2013-09-26 11:51:00
8:51 AM,54.0,45.0,72,30.04,10.0,NNW,4.6,-,N/A,,Clear,330,2013-09-26 12:51:00
9:51 AM,57.9,43.0,58,30.05,10.0,Calm,Calm,-,N/A,,Clear,0,2013-09-26 13:51:00
10:51 AM,61.0,45.0,56,30.04,10.0,NNW,5.8,-,N/A,,Scattered Clouds,340,2013-09-26 14:51:00
11:51 AM,60.1,44.1,55,30.04,10.0,Calm,Calm,-,N/A,,Partly Cloudy,0,2013-09-26 15:51:00
12:51 PM,64.0,46.0,52,30.04,10.0,Calm,Calm,-,N/A,,Partly Cloudy,0,2013-09-26 16:51:00
1:51 PM,64.9,46.0,50,30.03,10.0,Variable,3.5,-,N/A,,Clear,0,2013-09-26 17:51:00
2:51 PM,66.0,46.9,50,30.02,10.0,NE,6.9,-,N/A,,Scattered Clouds,50,2013-09-26 18:51:00
3:51 PM,66.9,46.9,49,30.02,10.0,NNW,5.8,-,N/A,,Scattered Clouds,340,2013-09-26 19:51:00
4:51 PM,66.9,48.0,51,30.03,10.0,NNE,6.9,-,N/A,,Partly Cloudy,20,2013-09-26 20:51:00
5:51 PM,64.9,48.9,56,30.04,10.0,ENE,5.8,-,N/A,,Mostly Cloudy,60,2013-09-26 21:51:00
6:51 PM,60.1,51.1,72,30.06,10.0,SE,3.5,-,N/A,,Overcast,130,2013-09-26 22:51:00
7:51 PM,55.9,50.0,80,30.08,10.0,Calm,Calm,-,N/A,,Mostly Cloudy,0,2013-09-26 23:51:00
8:51 PM,54.0,50.0,86,30.10,10.0,Calm,Calm,-,N/A,,Mostly Cloudy,0,2013-09-27 00:51:00
9:51 PM,55.0,50.0,83,30.12,10.0,Variable,5.8,-,N/A,,Overcast,0,2013-09-27 01:51:00
10:51 PM,54.0,48.0,80,30.13,10.0,NW,4.6,-,N/A,,Mostly Cloudy,320,2013-09-27 02:51:00
11:51 PM,53.1,48.9,86,30.14,10.0,NW,4.6,-,N/A,,Overcast,310,2013-09-27 03:51:00